This is the latest recevied weather packets stored in our database for station/object 2E0RGX-13. If no packets are shown the sender has not sent any weather packets the latest 1 day(s).
| Time | Temp. | Humidity | Pressure | Rain* | Wind** | Luminosity | Snow |
|---|---|---|---|---|---|---|---|
| 1778053478 | 10.56° C | 70% | 1009.7 hPa | 0 mm | 0.89 m/s, 334° | 1 W/m² | - |
| 1778053174 | 10.56° C | 70% | 1009.8 hPa | 0 mm | 0.89 m/s, 222° | 2 W/m² | - |
| 1778052870 | 10° C | 70% | 1009.9 hPa | 0 mm | 2.24 m/s, 41° | 2 W/m² | - |
| 1778052566 | 10° C | 70% | 1009.5 hPa | 0 mm | 2.68 m/s, 31° | 2 W/m² | - |
| 1778052262 | 10° C | 71% | 1009.9 hPa | 0 mm | 1.79 m/s, 341° | 2 W/m² | - |
| 1778051958 | 10° C | 72% | 1009.8 hPa | 0 mm | 2.68 m/s, 23° | 2 W/m² | - |
| 1778051654 | 10° C | 72% | 1009.6 hPa | 0 mm | 0.89 m/s, 304° | 2 W/m² | - |
| 1778051350 | 9.44° C | 72% | 1009.7 hPa | 0 mm | 2.24 m/s, 331° | 2 W/m² | - |
| 1778051046 | 10° C | 72% | 1009.6 hPa | 0 mm | 1.79 m/s, 25° | 2 W/m² | - |
| 1778050742 | 9.44° C | 74% | 1009.6 hPa | 0 mm | 0.89 m/s, 80° | 2 W/m² | - |
| 1778050438 | 9.44° C | 74% | 1009.4 hPa | 0 mm | 1.34 m/s, 65° | 2 W/m² | - |
| 1778050134 | 9.44° C | 74% | 1009.4 hPa | 0 mm | 1.79 m/s, 255° | 1 W/m² | - |
| 1778049830 | 9.44° C | 74% | 1009.4 hPa | 0 mm | 0.89 m/s, 82° | 2 W/m² | - |
| 1778049526 | 9.44° C | 76% | 1009.5 hPa | 0 mm | 1.34 m/s, 287° | 2 W/m² | - |
| 1778049222 | 8.89° C | 77% | 1009.4 hPa | 0 mm | 1.34 m/s, 7° | 2 W/m² | - |
| 1778048918 | 8.33° C | 78% | 1009.5 hPa | 0 mm | 1.79 m/s, 315° | 1 W/m² | - |
| 1778048614 | 8.33° C | 78% | 1009.6 hPa | 0 mm | 1.34 m/s, 307° | 1 W/m² | - |
| 1778048310 | 8.33° C | 78% | 1009.5 hPa | 0 mm | 1.79 m/s, 352° | 1 W/m² | - |
| 1778048006 | 8.33° C | 79% | 1009.6 hPa | 0 mm | 0.89 m/s, 321° | 1 W/m² | - |
| 1778047702 | 8.33° C | 79% | 1009.5 hPa | 0 mm | 0.89 m/s, 306° | 1 W/m² | - |
| 1778047398 | 7.78° C | 79% | 1009.3 hPa | 0 mm | 1.34 m/s, 24° | 1 W/m² | - |
| 1778047094 | 7.78° C | 79% | 1009.4 hPa | 0 mm | 1.79 m/s, 351° | 1 W/m² | - |
| 1778046790 | 7.78° C | 79% | 1009.5 hPa | 0 mm | 0.89 m/s, 303° | 0 W/m² | - |
| 1778046486 | 7.78° C | 79% | 1009.5 hPa | 0 mm | 0.89 m/s, 260° | 0 W/m² | - |
| 1778046182 | 7.78° C | 78% | 1009.4 hPa | 0 mm | 0.45 m/s, 6° | 0 W/m² | - |
* Rain latest hour (hover to see other rain measurements)
** Current wind speed in m/s (hover to see current wind gust speed)